7 * 24
多渠道服务支持
STARLINK-11165是美国太空探索技术公司(SpaceX)研发运营的星链(Starlink)低轨互联网通信卫星,于2024年6月19日成功发射。该卫星运行在近地轨道,倾角约53.05°,轨道高度在546至548公里区间,属于星链星座组网卫星,采用平板设计与霍尔推进技术,可为全球提供低延迟宽带互联网服务,目前仍在正常工作。
美国
(US)
| 数据来源 | 国际轨道数据 |
| 星历时间: | 2026-05-23T20:12:08+0800 1天前 查看轨道信息 |
| 半长轴: | 6737.879km |
| 偏心率: | 0.0000915 |
| 轨道倾角: | 53.159° |
| 近地点辐角 | 72.906° |
| 升交点赤经 | 182.286° |
| 平近点角 | 287.205° |
| 近地点: | 359.125km |
| 远地点: | 360.359km |
| 周期: | 91.737分钟 |
| 每日圈数: | 15.697047 |